Location: Mana�l
(15.0115°N, 12.5022°W)
Time: 16:31:58
(UTC+00:00)

Daily predictions for brighter satellites

Satellite Brightness Start Highest point End
(mag) Time Altitude Azimuth Time Altitude Azimuth Time Altitude Azimuth
USA 267 3.5 18:52:33 10° NNE 18:59:03 75° NW 19:05:34 10° SW
CZ-4B R/B 3.7 19:01:06 10° NNW 19:03:53 26° WNW 19:06:36 10° SW
Cosmos 1626 Rocket 4.2 19:00:03 10° SSE 19:03:58 35° E 19:07:56 10° NNE
SAR-Lupe-4 3.5 19:02:35 10° NNE 19:06:08 81° ESE 19:09:41 10° S
Meteor 2-10 Rocket 4.3 19:01:32 10° NNE 19:06:08 30° E 19:10:36 10° SE
Cosmos 1703 4.1 19:06:04 10° SSE 19:09:29 30° E 19:12:53 10° NNE
Cosmos 773 Rocket 4.4 19:05:01 10° N 19:09:44 37° ENE 19:14:26 10° SE
Ariane H10+ 4.4 19:09:05 10° SW 19:11:51 16° S 19:13:48 10° SE
Cosmos 1726 Rocket 3.5 19:08:44 10° N 19:13:05 68° E 19:17:29 10° SSE
Cosmos 1939 Rocket 3.0 19:09:43 10° S 19:13:51 88° W 19:17:59 10° NNW
SAR-Lupe-1 4.4 19:13:40 10° N 19:17:11 66° WNW 19:20:43 10° SSW
Okean-O 3.5 19:15:12 10° SE 19:18:53 26° ENE 19:22:35 10° NNE
Cosmos 1340 3.5 19:16:26 10° SSE 19:19:40 28° E 19:22:54 10° NNE
SWIFT 3.1 19:16:37 10° WNW 19:20:36 38° N 19:23:53 14° ENE
Palapa 6 Rocket 3.3 19:16:01 10° WNW 19:21:48 84° NNE 19:26:26 10° ESE
Okean O Rocket 3.6 19:19:24 10° SSW 19:23:24 33° W 19:27:24 10° NW
CZ-4 R/B 2.0 19:20:26 10° SE 19:24:16 36° ENE 19:28:03 10° N
GPS 2-14 Rocket1 3.6 19:22:22 10° WNW 19:26:10 36° N 19:28:57 16° ENE
Cosmos 1455 3.3 19:23:23 10° NNE 19:26:29 23° E 19:29:35 10° SE
Cosmos 1937 Rocket 4.0 19:23:05 10° S 19:27:58 40° E 19:32:52 10° NNE
ARGOS 4.2 19:24:46 10° ESE 19:28:50 22° ENE 19:32:53 10° NNE
Cosmos 1689 Rocket 3.8 19:26:23 10° N 19:28:59 33° WNW 19:31:33 10° SW
Aureole 3 4.0 19:30:24 19° E 19:30:24 19° E 19:32:24 10° SE
CZ-4 R/B 4.3 19:27:59 10° SSE 19:32:05 81° ENE 19:36:12 10° N
Cosmos 1328 4.1 19:28:32 10° SSE 19:32:22 44° E 19:36:12 10° NNE
BREEZE-M DEB (TANK) 4.2 19:30:16 10° N 19:33:35 24° ENE 19:40:31 10° ESE
Feng Yun 1-1 Rocket 4.3 19:29:20 10° S 19:34:42 80° WSW 19:40:06 10° NNW
Milstar 3 3.5 19:27:39 10° SW 19:38:07 58° SSE 19:43:11 20° E
Iridium 4 Rocket 4.3 19:34:11 10° NNE 19:38:43 28° E 19:42:56 10° SE
Cosmos 1627 Rocket 4.4 19:34:11 10° S 19:40:11 61° E 19:46:14 10° NNE
Cosmos 1538 Rocket 4.3 19:35:37 10° N 19:40:25 40° ENE 19:45:16 10° SE
Cosmos 1602 Rocket 3.4 19:39:18 10° S 19:43:36 88° E 19:47:55 10° N
YAOGAN 1 2.5 19:42:22 10° SSE 19:46:37 61° ENE 19:50:52 10° N
Delta 168 2.2 19:43:41 10° WNW 19:46:46 70° NNE 19:48:06 33° E
Cosmos 1428 Rocket 4.4 19:41:32 10° S 19:47:40 67° E 19:53:52 10° N
Cosmos 1943 3.8 19:43:41 10° NNW 19:49:12 58° WSW 19:54:41 10° S
GPS 2-12 Rocket1 3.5 19:46:49 10° W 19:51:05 46° N 19:52:44 31° NE
ATLAS 3B R/B 3.3 19:45:20 10° NNW 19:52:28 66° WSW 19:59:49 10° SSE
Hubble Space Telescope 3.0 19:51:09 10° NW 19:53:13 13° N 19:54:13 12° N
IRS-1C Rocket 4.4 19:48:03 10° S 19:53:16 69° WSW 19:58:30 10° NNW
Meteor 1-11 4.3 19:49:03 10° S 19:54:42 57° E 19:59:57 12° NNE
CZ-2C R/B 2.7 19:49:33 10° NNE 19:55:09 87° E 20:00:46 10° SSW
NOAA 15 4.4 19:50:22 10° SSE 19:55:35 78° ENE 20:00:49 10° N
Cosmos 1092 Rocket 4.3 19:49:45 10° S 19:55:59 70° W 20:02:09 10° N
Cosmos 1825 Rocket 3.7 19:57:30 10° SSE 20:01:38 45° E 20:01:58 44° ENE
FUSE 3.8 19:58:24 10° WNW 20:03:44 89° SSW 20:06:08 34° ESE
Helios 1A Rocket 2.8 20:00:25 10° SSE 20:04:30 81° ENE 20:08:38 10° N
SJ 16-02 4.5 20:07:42 10° W 20:08:49 11° WNW 20:09:55 10° WNW
Cosmos 2278 Rocket 2.1 20:07:19 10° S 20:12:57 75° ESE 20:15:20 36° NNE
Sakura Rocket 3.5 20:07:11 10° WSW 20:13:44 78° NNW 20:15:01 51° NE
GEOS 3 Rocket 3.5 20:17:31 44° NNE 20:19:16 86° ESE 20:24:25 10° SSW
H-2A R/B 2.5 20:15:03 10° S 20:19:51 57° W 20:24:42 10° NNW
IUS-9 SRM-1 4.4 20:25:41 10° NW 20:26:06 15° NW 20:26:06 15° NW
CSL-04 Rocket 3.6 20:23:11 10° SSE 20:28:29 85° WSW 20:33:53 10° NNW
EPKM 4.3 20:14:04 10° WNW 20:33:10 45° N 20:34:19 41° NNE
ARIANE 5 R/B 3.3 20:25:31 10° WSW 20:40:40 36° SSW 20:42:03 31° SSE
Cosmos 1655 Rocket 4.0 20:35:02 10° S 20:40:34 64° SE 20:40:34 64° SE
CCE 1 Rocket 4.2 20:37:54 10° WNW 20:42:59 57° WSW 20:42:59 57° WSW
Ariane H10+ 4.2 21:14:57 10° WSW 21:17:33 18° SW 21:17:33 18° SW
